{"data":{"norad_id":64681,"epoch":"2026-05-25T03:04:43.123296Z","epoch_age_seconds":59961,"freshness":"FRESH","line1":"1 64681U 25139T   26145.12827689  .00024840  00000+0  74335-3 0  9998","line2":"2 64681  53.1581 130.8215 0001651 133.5262 226.5878 15.34422359 52008","mean_motion":15.34422359,"eccentricity":0.0001651,"inclination_deg":53.1581,"raan_deg":130.8215,"arg_perigee_deg":133.5262,"mean_anomaly_deg":226.5878,"bstar":0.00074335,"rev_number":5200,"period_min":93.846390568661,"perigee_km":461.50737360217,"apogee_km":463.76619710609,"semimajor_km":6840.7737853541,"source":"CELESTRAK","updated_at":"2026-05-25T13:38:20.506626Z"}}